{"data":{"norad_id":65125,"epoch":"2026-09-21T21:12:39.214080Z","epoch_age_seconds":45600,"freshness":"FRESH","line1":"1 65125U 25170G   26264.88378720  .00000961  00000+0  14058-3 0  9993","line2":"2 65125  49.9913  85.6872 0017895  65.5756 294.7047 14.84254453 60791","mean_motion":14.84254453,"eccentricity":0.0017895,"inclination_deg":49.9913,"raan_deg":85.6872,"arg_perigee_deg":65.5756,"mean_anomaly_deg":294.7047,"bstar":0.00014058,"rev_number":6079,"period_min":97.018405239711,"perigee_km":603.41110479874,"apogee_km":628.44285979137,"semimajor_km":6994.0639822951,"source":"CELESTRAK","updated_at":"2026-09-22T09:00:30.144270Z"}}